Weather History for KEWK - March, 2013

Change the Weather History Date:

Thursday, March 14, 2013

  Actual Average Record
Temperature  
Mean Temperature 55 °F -  
Max Temperature 73 °F 50 °F 77 °F (2012)
Min Temperature 37 °F 30 °F 15 °F (1997)
Degree Days  
Heating Degree Days 10    
Growing Degree Days 5 (Base 50)    
Moisture  
Dew Point 33 °F    
Average Humidity 48    
Maximum Humidity 70    
Minimum Humidity 29    
Precipitation  
Precipitation 0.00 in - - ()
Sea Level Pressure  
Sea Level Pressure 30.16 in    
Wind  
Wind Speed 12 mph (SW)    
Max Wind Speed 21 mph    
Max Gust Speed 25 mph    
Visibility 10 miles    
Events      
Averages and records for this station are not official NWS values.
T = Trace of Precipitation, MM = Missing Value Source: NWS Daily Summary

Daily Weather History Graph

Daily Weather History Graph

Search for Another Location

Airport or City:

Trip Planner

Search our weather history database for the weather conditions in past years. The results will help you decide how hot, cold, wet, or windy it might be!

Date:

Astronomy

Mar. 14, 2013 Rise Set
Actual Time 7:41 AM CDT 7:35 PM CDT
Civil Twilight 7:15 AM CDT 8:01 PM CDT
Nautical Twilight 6:44 AM CDT 8:32 PM CDT
Astronomical Twilight 6:13 AM CDT 9:03 PM CDT
Moon 8:59 AM CDT (3/14) 10:49 PM CDT (3/14)
Length of Visible Light 12h 46m
Length of Day
11h 54m
Waxing Crescent, 9% of the Moon is Illuminated
Mar 14
Waxing Crescent
Mar 19
First Quarter
Mar 27
Full
Apr 2
Last Quarter
Apr 10
New

Hourly Weather History & Observations

Time (CDT) Temp. Windchill Dew Point Humidity Pressure Visibility Wind Dir Wind Speed Gust Speed Precip Events Conditions
12:15 AM 41.0 °F 33.1 °F 24.8 °F 53% 30.25 in 10.0 mi South 15.0 mph - N/A   Clear
12:35 AM 41.0 °F 33.1 °F 24.8 °F 53% 30.24 in 10.0 mi South 15.0 mph - N/A   Clear
12:55 AM 39.2 °F 32.0 °F 24.8 °F 56% 30.24 in 10.0 mi South 11.5 mph - N/A   Clear
1:15 AM 39.2 °F 31.6 °F 24.8 °F 56% 30.23 in 10.0 mi South 12.7 mph - N/A   Clear
1:35 AM 37.4 °F 30.3 °F 24.8 °F 60% 30.24 in 10.0 mi South 10.4 mph - N/A   Clear
1:55 AM 39.2 °F 32.5 °F 24.8 °F 56% 30.24 in 10.0 mi South 10.4 mph - N/A   Clear
2:15 AM 39.2 °F 31.6 °F 24.8 °F 56% 30.23 in 10.0 mi South 12.7 mph - N/A   Clear
2:35 AM 39.2 °F 32.0 °F 24.8 °F 56% 30.23 in 10.0 mi South 11.5 mph - N/A   Clear
2:55 AM 39.2 °F 32.5 °F 24.8 °F 56% 30.22 in 10.0 mi SSW 10.4 mph - N/A   Clear
3:15 AM 39.2 °F 31.6 °F 24.8 °F 56% 30.22 in 10.0 mi South 12.7 mph - N/A   Clear
3:35 AM 39.2 °F 30.8 °F 24.8 °F 56% 30.20 in 10.0 mi SSW 15.0 mph - N/A   Clear
3:55 AM 41.0 °F 33.1 °F 24.8 °F 53% 30.21 in 10.0 mi SSW 15.0 mph - N/A   Clear
4:15 AM 39.2 °F 31.6 °F 24.8 °F 56% 30.20 in 10.0 mi South 12.7 mph - N/A   Clear
4:35 AM 39.2 °F 31.6 °F 24.8 °F 56% 30.20 in 10.0 mi South 12.7 mph - N/A   Clear
4:55 AM 39.2 °F 32.0 °F 24.8 °F 56% 30.20 in 10.0 mi South 11.5 mph - N/A   Clear
5:15 AM 39.2 °F 32.0 °F 24.8 °F 56% 30.20 in 10.0 mi SSW 11.5 mph - N/A   Clear
5:35 AM 37.4 °F 30.3 °F 24.8 °F 60% 30.20 in 10.0 mi SSW 10.4 mph - N/A   Clear
5:55 AM 37.4 °F 30.3 °F 26.6 °F 65% 30.20 in 10.0 mi SSW 10.4 mph - N/A   Clear
6:15 AM 39.2 °F 31.6 °F 26.6 °F 61% 30.20 in 10.0 mi SSW 12.7 mph - N/A   Partly Cloudy
6:35 AM 37.4 °F 29.3 °F 26.6 °F 65% 30.19 in 10.0 mi SSW 12.7 mph - N/A   Clear
6:55 AM 37.4 °F 29.3 °F 26.6 °F 65% 30.19 in 10.0 mi South 12.7 mph - N/A   Clear
7:15 AM 37.4 °F 29.3 °F 28.4 °F 70% 30.18 in 10.0 mi SSW 12.7 mph - N/A   Clear
7:35 AM 39.2 °F 31.2 °F 28.4 °F 65% 30.18 in 10.0 mi SSW 13.8 mph - N/A   Clear
7:55 AM 39.2 °F 30.8 °F 28.4 °F 65% 30.18 in 10.0 mi SSW 15.0 mph - N/A   Clear
8:15 AM 42.8 °F 35.4 °F 30.2 °F 61% 30.18 in 10.0 mi SSW 15.0 mph - N/A   Clear
8:35 AM 42.8 °F 35.4 °F 30.2 °F 61% 30.18 in 10.0 mi SSW 15.0 mph - N/A   Clear
8:55 AM 42.8 °F 35.8 °F 32.0 °F 66% 30.18 in 10.0 mi SSW 13.8 mph - N/A   Clear
9:15 AM 44.6 °F 37.4 °F 32.0 °F 61% 30.17 in 10.0 mi SW 16.1 mph 21.9 mph N/A   Clear
9:35 AM 46.4 °F 40.1 °F 33.8 °F 62% 30.18 in 10.0 mi SSW 15.0 mph - N/A   Clear
9:55 AM 48.2 °F - 33.8 °F 58% 30.18 in 10.0 mi SW 15.0 mph - N/A   Clear
10:15 AM 50.0 °F - 33.8 °F 54% 30.18 in 10.0 mi SSW 12.7 mph - N/A   Clear
10:35 AM 51.8 °F - 35.6 °F 54% 30.18 in 10.0 mi SW 16.1 mph - N/A   Clear
10:55 AM 53.6 °F - 35.6 °F 51% 30.18 in 10.0 mi SW 16.1 mph 20.7 mph N/A   Clear
11:15 AM 55.4 °F - 37.4 °F 51% 30.17 in 10.0 mi SW 18.4 mph - N/A   Clear
11:35 AM 55.4 °F - 37.4 °F 51% 30.16 in 10.0 mi SW 20.7 mph - N/A   Clear
11:55 AM 57.2 °F - 37.4 °F 48% 30.15 in 10.0 mi SW 16.1 mph 25.3 mph N/A   Clear
12:15 PM 59.0 °F - 37.4 °F 45% 30.15 in 10.0 mi SW 18.4 mph 23.0 mph N/A   Clear
12:35 PM 60.8 °F - 39.2 °F 45% 30.15 in 10.0 mi SW 16.1 mph - N/A   Clear
12:55 PM 62.6 °F - 39.2 °F 42% 30.16 in 10.0 mi WSW 11.5 mph - N/A   Clear
1:15 PM 64.4 °F - 41.0 °F 42% 30.16 in 10.0 mi WSW 11.5 mph - N/A   Clear
1:35 PM 66.2 °F - 39.2 °F 37% 30.15 in 10.0 mi WSW 15.0 mph 18.4 mph N/A   Clear
1:55 PM 68.0 °F - 41.0 °F 37% 30.15 in 10.0 mi WSW 9.2 mph - N/A   Clear
2:15 PM 69.8 °F - 41.0 °F 35% 30.15 in 10.0 mi WSW 11.5 mph - N/A   Clear
2:35 PM 71.6 °F - 39.2 °F 31% 30.14 in 10.0 mi West 12.7 mph - N/A   Clear
2:55 PM 71.6 °F - 39.2 °F 31% 30.13 in 10.0 mi WSW 8.1 mph - N/A   Clear
3:15 PM 73.4 °F - 41.0 °F 31% 30.12 in 10.0 mi West 6.9 mph - N/A   Clear
3:35 PM 73.4 °F - 39.2 °F 29% 30.12 in 10.0 mi NNW 12.7 mph - N/A   Clear
3:55 PM 71.6 °F - 39.2 °F 31% 30.12 in 10.0 mi NW 11.5 mph - N/A   Clear
4:15 PM 71.6 °F - 39.2 °F 31% 30.12 in 10.0 mi NNW 8.1 mph - N/A   Clear
4:35 PM 71.6 °F - 39.2 °F 31% 30.12 in 10.0 mi NNW 11.5 mph - N/A   Clear
4:55 PM 71.6 °F - 39.2 °F 31% 30.12 in 10.0 mi NNW 8.1 mph - N/A   Clear
5:15 PM 71.6 °F - 39.2 °F 31% 30.11 in 10.0 mi North 6.9 mph - N/A   Clear
5:35 PM 69.8 °F - 39.2 °F 33% 30.10 in 10.0 mi North 4.6 mph - N/A   Clear
5:55 PM 71.6 °F - 39.2 °F 31% 30.10 in 10.0 mi Calm Calm - N/A   Clear
6:15 PM 71.6 °F - 39.2 °F 31% 30.10 in 10.0 mi Calm Calm - N/A   Clear
6:35 PM 69.8 °F - 39.2 °F 33% 30.10 in 10.0 mi NE 3.5 mph - N/A   Clear
6:55 PM 69.8 °F - 41.0 °F 35% 30.11 in 10.0 mi ENE 3.5 mph - N/A   Clear
7:15 PM 64.4 °F - 39.2 °F 40% 30.12 in 10.0 mi NNE 8.1 mph - N/A   Clear
7:35 PM 60.8 °F - 37.4 °F 42% 30.13 in 10.0 mi NNE 9.2 mph - N/A   Clear
7:55 PM 62.6 °F - 37.4 °F 39% 30.12 in 10.0 mi NNE 5.8 mph - N/A   Clear
8:15 PM 62.6 °F - 37.4 °F 39% 30.12 in 10.0 mi NNE 6.9 mph - N/A   Clear
8:35 PM 62.6 °F - 37.4 °F 39% 30.12 in 10.0 mi NNE 5.8 mph - N/A   Clear
8:55 PM 62.6 °F - 35.6 °F 37% 30.12 in 10.0 mi NNE 6.9 mph - N/A   Clear
9:15 PM 62.6 °F - 35.6 °F 37% 30.12 in 10.0 mi NNE 5.8 mph - N/A   Clear
9:35 PM 62.6 °F - 35.6 °F 37% 30.12 in 10.0 mi NNE 3.5 mph - N/A   Clear
9:55 PM 60.8 °F - 35.6 °F 39% 30.13 in 10.0 mi NNE 6.9 mph - N/A   Clear
10:15 PM 57.2 °F - 35.6 °F 44% 30.13 in 10.0 mi North 6.9 mph - N/A   Clear
10:35 PM 55.4 °F - 35.6 °F 47% 30.13 in 10.0 mi Calm Calm - N/A   Clear
10:55 PM 59.0 °F - 37.4 °F 45% 30.13 in 10.0 mi NE 5.8 mph - N/A   Clear
11:15 PM 57.2 °F - 35.6 °F 44% 30.12 in 10.0 mi ENE 4.6 mph - N/A   Clear
11:35 PM 50.0 °F - 33.8 °F 54% 30.12 in 10.0 mi ESE 5.8 mph - N/A   Clear
11:55 PM 51.8 °F - 35.6 °F 54% 30.11 in 10.0 mi SE 6.9 mph - N/A   Clear